Angel Fire, NM

10:11 PM MDT on October 19, 2017 (GMT -0600)
Angel Fire

Weather History for KAXX - May, 2013

Change the Weather History Date:

Thursday, May 16, 2013

  Actual Average (KSKX) Record (KSKX)
Temperature  
Mean Temperature 48 °F -  
Max Temperature 70 °F 70 °F 80 °F (2013)
Min Temperature 25 °F 35 °F 26 °F (1998)
Degree Days  
Heating Degree Days 18    
Moisture  
Dew Point 23 °F    
Average Humidity 51    
Maximum Humidity 99    
Minimum Humidity 13    
Precipitation  
Precipitation 0.00 in - - ()
Sea Level Pressure  
Sea Level Pressure 30.17 in    
Wind  
Wind Speed 4 mph (West)    
Max Wind Speed 21 mph    
Max Gust Speed 36 mph    
Visibility 8 miles    
Events Fog    
Averages and records for this station are not official NWS values.
T = Trace of Precipitation, MM = Missing Value Source: NWS Daily Summary

Daily Weather History Graph

Daily Weather History Graph

Search for Another Location

Airport or City:

Trip Planner

Search our weather history database for the weather conditions in past years. The results will help you decide how hot, cold, wet, or windy it might be!

Date:

Astronomy

May. 16, 2013 Rise Set
Actual Time 5:53 AM MDT 8:02 PM MDT
Civil Twilight 5:24 AM MDT 8:30 PM MDT
Nautical Twilight 4:49 AM MDT 9:06 PM MDT
Astronomical Twilight 4:11 AM MDT 9:44 PM MDT
Moon 11:26 AM MDT (5/16) 12:26 AM MDT (5/16)
Length of Visible Light 15h 06m
Length of Day
14h 08m
Waxing Crescent, 36% of the Moon is Illuminated
May 16
Waxing Crescent
May 17
First Quarter
May 24
Full
May 31
Last Quarter
Jun 8
New

Hourly Weather History & Observations

Time (MDT) Temp. Windchill Dew Point Humidity Pressure Visibility Wind Dir Wind Speed Gust Speed Precip Events Conditions
12:15 AM 34.7 °F - 32.5 °F 92% 30.21 in 10.0 mi Calm Calm - N/A   Clear
12:35 AM 32.7 °F - 31.6 °F 96% 30.22 in 10.0 mi Calm Calm - N/A   Clear
12:55 AM 32.2 °F - 30.9 °F 95% 30.22 in 10.0 mi Calm Calm - N/A   Clear
1:15 AM 29.7 °F - 28.2 °F 94% 30.22 in 10.0 mi Calm Calm - N/A   Clear
1:35 AM 31.1 °F - 29.8 °F 95% 30.21 in 10.0 mi Calm Calm - N/A   Clear
1:55 AM 29.7 °F - 28.0 °F 94% 30.20 in 10.0 mi Calm Calm - N/A   Clear
2:15 AM 28.8 °F - 27.9 °F 96% 30.20 in 10.0 mi Calm Calm - N/A   Clear
2:35 AM 29.1 °F - 28.0 °F 96% 30.20 in 10.0 mi Calm Calm - N/A   Clear
2:55 AM 26.8 °F - 25.7 °F 96% 30.20 in 10.0 mi Calm Calm - N/A   Clear
3:15 AM 27.7 °F - 27.0 °F 97% 30.20 in 2.5 mi Calm Calm - N/A   Mostly Cloudy
3:35 AM 28.4 °F - 27.3 °F 96% 30.20 in 10.0 mi Calm Calm - N/A   Mostly Cloudy
3:55 AM 26.4 °F - 25.5 °F 96% 30.20 in 7.0 mi Calm Calm - N/A   Mostly Cloudy
4:15 AM 25.2 °F - 24.4 °F 97% 30.20 in 2.0 mi Calm Calm - N/A   Overcast
4:35 AM 27.5 °F - 27.1 °F 99% 30.20 in 0.5 mi Calm Calm - N/A Fog Light Freezing Fog
4:55 AM 27.3 °F - 26.8 °F 98% 30.20 in 0.8 mi Calm Calm - N/A   Overcast
5:15 AM 27.1 °F - 26.8 °F 99% 30.20 in 0.5 mi Calm Calm - N/A Fog Light Freezing Fog
5:35 AM 26.8 °F - 26.2 °F 98% 30.20 in 7.0 mi Calm Calm - N/A   Scattered Clouds
5:55 AM 27.3 °F - 27.0 °F 99% 30.20 in 0.5 mi Calm Calm - N/A Fog Light Freezing Fog
6:15 AM 27.9 °F - 27.5 °F 99% 30.21 in 0.2 mi Calm Calm - N/A Fog Light Freezing Fog
6:35 AM 29.3 °F - 29.1 °F 99% 30.22 in 0.2 mi Calm Calm - N/A Fog Light Freezing Fog
6:55 AM 30.9 °F - 30.4 °F 98% 30.22 in 0.2 mi Calm Calm - N/A Fog Light Freezing Fog
7:15 AM 32.0 °F - 31.8 °F 99% 30.22 in 0.2 mi Calm Calm - N/A Fog Fog
7:35 AM 32.4 °F - 32.0 °F 99% 30.23 in 0.2 mi Calm Calm - N/A Fog Fog
7:55 AM 34.9 °F - 34.2 °F 97% 30.23 in 5.0 mi Calm Calm - N/A   Scattered Clouds
8:15 AM 37.9 °F - 37.0 °F 97% 30.22 in 10.0 mi Calm Calm - N/A   Scattered Clouds
8:35 AM 41.5 °F - 38.1 °F 88% 30.22 in 10.0 mi Calm Calm - N/A   Clear
8:55 AM 47.5 °F - 36.3 °F 65% 30.21 in 10.0 mi NW 3.5 mph - N/A   Clear
9:15 AM 56.7 °F - 24.1 °F 28% 30.20 in 10.0 mi West 12.7 mph 17.3 mph N/A   Clear
9:35 AM 58.1 °F - 23.5 °F 26% 30.20 in 10.0 mi WSW 12.7 mph 18.4 mph N/A   Clear
9:55 AM 59.0 °F - 23.4 °F 25% 30.20 in 10.0 mi West 15.0 mph 18.4 mph N/A   Clear
10:15 AM 60.4 °F - 22.6 °F 23% 30.20 in 10.0 mi West 12.7 mph 17.3 mph N/A   Clear
10:35 AM 60.8 °F - 21.9 °F 22% 30.20 in 10.0 mi West 15.0 mph 18.4 mph N/A   Clear
10:55 AM 61.2 °F - 21.4 °F 22% 30.20 in 10.0 mi West 10.4 mph 21.9 mph N/A   Clear
11:15 AM 61.7 °F - 20.8 °F 21% 30.20 in 10.0 mi West 15.0 mph 21.9 mph N/A   Clear
11:35 AM 62.2 °F - 20.3 °F 20% 30.19 in 10.0 mi West 15.0 mph 28.8 mph N/A   Clear
11:55 AM 63.5 °F - 21.0 °F 20% 30.19 in 10.0 mi West 20.7 mph 28.8 mph N/A   Clear
12:15 PM 63.5 °F - 21.2 °F 20% 30.19 in 10.0 mi West 19.6 mph 27.6 mph N/A   Clear
12:35 PM 64.0 °F - 21.4 °F 20% 30.18 in 10.0 mi WNW 13.8 mph 23.0 mph N/A   Clear
1:15 PM 65.8 °F - 21.0 °F 18% 30.16 in 10.0 mi WNW 11.5 mph 20.7 mph N/A   Clear
1:35 PM 66.4 °F - 19.9 °F 17% 30.15 in 10.0 mi WNW 9.2 mph 35.7 mph N/A   Clear
1:55 PM 66.9 °F - 18.5 °F 16% 30.15 in 10.0 mi West 8.1 mph 26.5 mph N/A   Clear
2:15 PM 69.3 °F - 19.2 °F 15% 30.14 in 10.0 mi West 16.1 mph 27.6 mph N/A   Clear
2:35 PM 69.4 °F - 18.5 °F 14% 30.14 in 10.0 mi West 18.4 mph 29.9 mph N/A   Clear
2:55 PM 68.7 °F - 17.6 °F 14% 30.14 in 10.0 mi WSW 15.0 mph 24.2 mph N/A   Clear
3:15 PM 69.1 °F - 17.8 °F 14% 30.13 in 10.0 mi West 13.8 mph 26.5 mph N/A   Clear
3:35 PM 69.3 °F - 17.6 °F 14% 30.12 in 10.0 mi West 16.1 mph 27.6 mph N/A   Clear
4:15 PM 69.4 °F - 18.0 °F 14% 30.11 in 10.0 mi SW 9.2 mph 27.6 mph N/A   Clear
4:35 PM 70.2 °F - 17.4 °F 13% 30.10 in 10.0 mi WSW 20.7 mph 28.8 mph N/A   Clear
4:55 PM 70.0 °F - 17.2 °F 13% 30.10 in 10.0 mi West 13.8 mph 20.7 mph N/A   Clear
5:15 PM 68.9 °F - 16.3 °F 13% 30.10 in 10.0 mi West 13.8 mph 26.5 mph N/A   Clear
5:35 PM 69.4 °F - 16.0 °F 13% 30.10 in 10.0 mi West 11.5 mph 23.0 mph N/A   Clear
5:55 PM 68.5 °F - 15.3 °F 13% 30.09 in 10.0 mi West 12.7 mph 17.3 mph N/A   Clear
6:15 PM 68.7 °F - 15.8 °F 13% 30.10 in 10.0 mi SW 13.8 mph 24.2 mph N/A   Clear
6:35 PM 68.2 °F - 15.4 °F 13% 30.10 in 10.0 mi WSW 12.7 mph 21.9 mph N/A   Clear
6:55 PM 66.7 °F - 15.3 °F 14% 30.09 in 10.0 mi WSW 9.2 mph - N/A   Clear
7:15 PM 66.2 °F - 14.5 °F 14% 30.09 in 10.0 mi West 13.8 mph 24.2 mph N/A   Clear
7:35 PM 64.2 °F - 15.3 °F 15% 30.10 in 10.0 mi WSW 11.5 mph - N/A   Clear
7:55 PM 61.5 °F - 14.5 °F 16% 30.11 in 10.0 mi WSW 10.4 mph - N/A   Clear
8:15 PM 59.5 °F - 14.9 °F 17% 30.12 in 10.0 mi WSW 6.9 mph - N/A   Clear
8:35 PM 51.6 °F - 19.4 °F 28% 30.12 in 10.0 mi West 3.5 mph - N/A   Clear
8:55 PM 47.5 °F - 19.8 °F 33% 30.13 in 10.0 mi Calm Calm - N/A   Clear
9:15 PM 48.6 °F - 18.5 °F 30% 30.14 in 10.0 mi Calm Calm - N/A   Clear
9:35 PM 45.3 °F - 17.2 °F 33% 30.15 in 10.0 mi Calm Calm - N/A   Clear
9:55 PM 41.2 °F - 16.7 °F 37% 30.16 in 10.0 mi Calm Calm - N/A   Clear
10:15 PM 41.5 °F - 18.1 °F 39% 30.16 in 10.0 mi Calm Calm - N/A   Clear
10:35 PM 40.6 °F - 17.6 °F 39% 30.16 in 10.0 mi Calm Calm - N/A   Clear
10:55 PM 38.7 °F - 17.6 °F 43% 30.16 in 10.0 mi Calm Calm - N/A   Clear
11:15 PM 37.9 °F - 18.0 °F 45% 30.16 in 10.0 mi Calm Calm - N/A   Clear
11:35 PM 34.3 °F - 17.2 °F 50% 30.15 in 10.0 mi Calm Calm - N/A   Clear
11:55 PM 36.7 °F 34.1 °F 18.5 °F 48% 30.16 in 10.0 mi South 3.5 mph - N/A   Clear